Location: Mahannah Oil Field
(37.4664°N, 96.6003°W)
Time: 02:10:37
(UTC+00:00)

Tiros 1 despin weight - Pass Details

Date: 25 January 2021
Orbit: 593 x 642 km, 48.2° (Epoch: 25 February)

Event Time Altitude Azimuth Distance (km) Brightness Sun altitude
Rises 01:04:41 0° 306° (NW) 2,855 ? -16.4°
Reaches altitude 10° 01:07:12 10° 316° (NW) 1,943 ? -16.9°
Maximum altitude 01:11:13 33° 21° (NNE) 1,018 ? -17.7°
Enters shadow 01:11:59 30° 42° (NE) 1,064 ? -17.8°
Drops below altitude 10° 01:15:12 10° 86° (E) 1,922 - -18.5°
Sets 01:17:40 0° 96° (E) 2,820 - -18.9°
